{"data":{"norad_id":68409,"epoch":"2026-09-18T22:47:39.045408Z","epoch_age_seconds":203627,"freshness":"STALE","line1":"1 68409U 26065B   26261.94975747  .00004939  00000+0  23013-3 0  9991","line2":"2 68409  97.3846 140.5840 0014721  37.6239 322.6023 15.20254314 26488","mean_motion":15.20254314,"eccentricity":0.0014721,"inclination_deg":97.3846,"raan_deg":140.584,"arg_perigee_deg":37.6239,"mean_anomaly_deg":322.6023,"bstar":0.00023013,"rev_number":2648,"period_min":94.720994161244,"perigee_km":494.9401002126,"apogee_km":515.20564672207,"semimajor_km":6883.2098734673,"source":"CELESTRAK","updated_at":"2026-09-20T09:00:24.196091Z"}}